Theta_e
312 312 312 312 311 311 310 308 308 308 308 309 313 315 317 317 312 309 309 311 310 313 321 331 328 336 344 347 349 350 356 356 355 355 354 349 349 348 348 347 345 345 343 345 346
311 310 310 311 312 311 311 309 308 308 308 308 310 313 316 317 316 314 310 309 310 312 325 326 326 333 338 343 348 351 354 353 350 350 351 348 347 346 347 348 346 344 345 345 344
313 309 308 308 309 312 311 310 309 308 309 308 308 311 314 316 316 313 315 310 309 313 325 325 326 327 330 339 346 348 353 350 351 350 348 347 348 346 347 349 346 346 345 344 343
313 308 307 307 307 308 311 311 310 309 309 308 308 309 313 315 318 321 319 311 309 314 325 324 325 325 330 340 343 350 349 348 349 349 345 347 346 348 347 346 345 344 344 343 342
311 310 310 309 307 307 307 308 308 308 308 308 308 308 313 318 317 317 317 312 309 320 324 323 324 325 329 339 343 349 348 349 348 346 346 346 348 347 347 345 344 343 342 341 340
310 311 309 308 307 307 306 306 306 306 307 307 307 308 314 319 316 311 314 311 323 324 322 323 323 325 333 340 344 341 346 349 347 346 347 347 346 347 346 344 343 342 340 340 339
312 311 314 316 316 316 314 312 307 308 307 306 307 309 316 318 315 315 323 321 322 321 322 323 322 326 336 340 338 342 347 350 348 348 347 345 346 349 344 343 341 340 341 341 341
315 311 313 314 315 315 316 317 317 309 310 308 308 310 318 314 315 321 323 319 321 320 322 321 322 328 337 337 335 343 345 352 351 347 347 345 353 348 343 340 340 341 341 343 342
314 315 312 313 314 315 315 316 318 315 313 311 311 315 317 314 317 320 317 316 319 319 318 319 322 326 335 339 336 343 346 351 355 348 347 348 352 347 345 340 340 341 342 344 345
312 314 315 314 314 315 316 317 318 317 314 317 311 320 319 320 318 318 317 316 317 318 317 318 322 326 338 341 341 340 340 352 356 351 349 353 351 347 346 345 342 342 343 345 346
312 312 314 316 315 314 317 318 321 323 321 321 320 319 319 319 318 319 319 317 315 316 320 319 324 327 336 339 333 335 337 352 352 351 352 351 349 350 347 346 344 343 344 345 345
310 312 311 315 315 315 316 319 319 318 322 320 319 319 319 319 319 321 319 320 318 318 320 322 324 326 334 337 330 338 338 352 352 352 351 352 352 350 348 345 345 345 344 345 345
309 311 311 314 315 316 317 318 317 318 322 321 319 320 320 320 320 321 320 321 320 319 321 323 323 328 334 333 331 345 344 349 351 351 349 350 355 354 348 346 345 344 345 345 345
308 310 311 315 316 317 319 318 319 319 325 323 322 321 320 321 320 321 321 321 318 319 320 323 326 328 334 335 332 336 336 346 352 351 354 351 353 355 352 351 347 345 345 345 344
308 310 313 315 317 318 318 319 320 318 325 322 322 320 321 322 321 320 320 322 321 319 322 324 326 330 334 336 331 333 335 343 346 346 349 350 346 351 353 354 349 347 344 343 343
309 312 315 317 317 318 319 320 318 323 324 323 322 323 321 322 323 320 322 323 323 322 324 328 327 331 331 331 329 329 336 340 341 344 343 345 348 355 356 354 352 347 346 343 342
313 315 318 318 320 318 319 319 326 325 323 323 323 323 323 324 324 323 323 324 325 324 322 327 328 328 329 331 330 333 339 341 341 342 343 341 342 346 347 347 349 348 346 346 342
316 317 318 319 318 319 320 324 324 323 323 323 323 323 322 323 325 324 324 325 325 324 324 327 328 328 326 327 330 332 337 338 342 343 342 344 344 346 344 344 345 347 347 347 345
318 319 321 322 321 321 322 321 323 322 322 323 323 323 323 323 325 326 325 326 325 324 325 326 328 326 326 326 326 331 335 335 337 338 341 344 345 346 347 347 346 347 348 347 347
320 323 322 321 320 320 322 319 321 321 321 322 323 324 324 323 324 325 326 326 326 325 324 326 326 325 325 325 326 327 333 336 336 340 342 344 343 350 352 350 348 348 348 347 346
320 323 321 319 319 320 321 320 320 320 319 322 321 324 325 325 324 325 325 324 324 324 324 326 326 325 325 325 326 326 328 330 332 334 339 341 343 350 353 351 350 348 346 346 346
322 323 320 319 321 320 321 320 318 319 320 320 320 323 325 326 325 324 324 323 322 323 325 325 326 329 326 325 326 326 326 328 332 335 335 340 354 349 350 350 348 349 348 346 346
323 322 320 319 322 321 320 319 319 319 321 322 321 321 324 325 326 325 323 322 322 324 327 327 326 329 328 327 327 327 327 328 329 331 335 335 341 350 350 350 350 351 350 349 347
321 322 321 319 319 321 320 319 319 318 319 321 321 321 324 325 324 323 322 323 322 324 320 322 328 329 329 328 327 328 328 328 329 332 332 335 345 352 352 351 348 348 348 349 349
322 322 319 321 320 319 320 319 319 318 318 320 323 322 324 324 325 324 323 323 323 321 325 326 329 328 327 328 328 328 328 328 329 329 331 332 334 345 350 351 346 346 348 348 348
324 323 319 320 319 320 317 319 317 318 318 317 323 322 323 323 323 323 321 323 323 324 327 326 328 328 327 325 330 330 330 329 330 330 331 332 342 347 347 348 347 345 345 345 346
321 318 321 317 320 319 318 317 318 318 318 317 316 323 322 320 319 319 318 318 318 321 325 326 328 329 329 327 326 333 335 334 335 336 338 332 345 346 347 346 344 342 340 340 339
Wind_Speed
12 11 10 9 8 8 8 8 8 7 6 7 8 9 7 7 8 10 12 8 13 13 17 14 11 11 10 8 4 3 4 2 2 12 6 5 6 5 3 15 6 6 16 30 26
13 12 11 10 9 8 8 8 8 8 8 6 7 8 9 7 8 13 7 8 11 16 19 18 16 14 10 9 5 5 2 3 5 7 11 10 7 12 10 11 13 20 25 29 27
15 14 12 10 9 8 7 8 8 9 7 7 6 7 6 6 5 3 5 16 18 18 18 15 13 13 9 8 7 3 3 3 1 9 17 10 8 7 11 10 18 28 34 29 27
17 16 13 11 9 8 7 7 8 9 9 6 6 6 4 3 1 3 4 15 19 20 20 16 16 13 10 8 8 6 3 11 8 18 13 7 6 9 3 5 17 25 33 30 26
17 15 14 12 9 7 6 6 7 8 8 6 4 4 4 5 6 5 3 12 19 20 23 20 17 13 9 7 9 4 3 10 17 23 16 11 10 4 7 12 24 29 28 28 24
16 15 13 12 10 9 8 7 6 6 6 5 3 4 3 9 7 7 5 15 19 19 21 19 15 11 7 7 10 5 8 18 20 15 7 7 4 4 10 23 29 28 26 25 22
14 13 12 12 13 13 12 12 10 7 4 2 3 4 6 4 3 3 10 16 18 15 18 16 11 11 4 8 5 9 8 12 21 15 6 11 2 7 15 25 27 26 24 22 20
12 11 9 10 12 13 12 11 10 8 8 3 1 3 4 5 5 3 10 16 18 13 14 12 8 9 9 3 7 11 9 7 14 15 11 11 11 6 17 25 25 24 24 22 18
11 10 8 8 10 12 13 11 12 3 5 5 3 1 4 1 4 9 9 15 18 11 8 10 7 11 8 11 10 10 8 11 11 21 13 14 11 7 12 19 24 24 24 21 18
11 9 8 8 8 10 12 12 10 4 6 3 1 3 2 5 8 11 9 16 17 14 9 10 11 10 10 10 12 12 9 14 13 11 17 15 10 16 15 19 24 25 24 22 20
12 11 9 7 7 7 8 9 7 1 5 5 3 4 4 5 11 10 14 12 13 15 10 14 11 17 18 14 8 7 7 10 12 12 14 10 10 16 24 21 26 25 25 23 21
12 11 11 8 5 3 4 3 5 6 7 4 5 6 6 5 11 14 14 10 14 14 12 9 15 15 12 8 8 9 10 13 12 16 8 11 9 16 22 26 29 28 26 23 22
13 11 12 7 3 1 5 4 9 9 6 4 2 3 7 8 11 19 17 8 13 14 16 13 9 9 12 12 10 7 9 13 13 13 9 12 6 10 17 25 28 28 26 26 23
13 12 10 5 2 3 2 8 14 8 4 6 5 5 5 7 8 16 18 8 7 13 14 11 7 14 15 15 12 11 1 6 13 15 6 16 3 8 18 18 19 27 27 27 26
12 12 5 2 1 2 6 12 11 2 1 4 6 1 3 6 16 15 17 9 10 10 10 8 11 18 17 14 10 5 6 8 12 4 10 10 3 7 20 17 16 22 29 29 28
12 7 4 2 1 2 8 12 2 7 5 3 2 1 7 10 8 18 18 12 1 8 14 1 14 13 13 10 10 2 9 6 4 3 7 11 9 12 17 26 26 28 27 29 28
9 3 3 2 2 7 10 4 6 5 2 4 4 2 4 8 9 16 17 15 9 10 14 8 13 9 10 14 12 13 14 7 8 7 4 4 8 4 19 14 25 31 35 31 29
4 2 1 3 6 6 6 8 4 3 5 3 3 4 5 4 9 13 15 13 6 11 11 13 14 16 11 14 13 18 18 8 10 10 9 6 6 3 6 15 17 27 31 31 29
4 3 3 4 3 3 8 2 4 4 4 8 5 5 6 7 3 9 12 12 11 9 8 12 11 18 11 14 10 16 19 17 15 6 10 10 6 6 7 11 16 25 31 29 27
4 3 4 4 4 1 3 5 3 4 6 4 6 3 5 7 8 9 10 5 7 6 10 3 10 12 16 16 17 14 14 13 9 10 12 8 10 6 10 11 16 21 32 30 24
4 4 2 5 4 3 4 7 3 4 6 5 6 4 2 3 9 6 3 4 4 11 7 9 9 12 14 15 17 11 13 14 14 14 8 10 8 7 9 8 16 23 28 32 35
2 2 0 4 4 2 5 4 3 5 3 2 4 5 4 4 1 3 5 7 5 8 10 10 8 8 18 13 13 21 17 17 11 12 12 9 5 5 5 10 12 16 19 23 27
1 4 1 3 2 3 4 3 4 7 8 5 4 5 3 1 1 2 2 5 9 5 3 5 9 9 8 9 9 14 16 18 20 17 16 11 3 6 8 8 12 13 16 15 19
2 4 4 3 3 4 1 2 1 4 4 4 6 2 3 4 3 4 1 4 6 4 2 4 4 11 4 14 16 17 12 16 13 13 14 12 6 8 10 10 11 13 16 17 22
1 3 2 2 4 2 1 2 4 4 3 6 2 6 3 1 9 11 8 10 4 3 2 3 2 5 5 6 4 8 15 15 15 18 12 8 12 9 10 11 14 12 13 16 16
1 3 2 3 3 4 2 3 4 4 6 4 4 6 6 7 7 2 3 3 4 6 1 5 2 3 6 4 5 9 5 6 5 6 7 8 6 5 10 11 12 13 13 15 17
1 4 2 4 4 4 3 1 2 0 3 6 5 4 3 7 4 3 2 3 3 5 4 2 5 5 8 1 7 10 6 4 3 1 6 10 8 9 11 10 11 14 12 12 15
Wind_Direction
359 348 336 329 319 307 299 292 294 294 272 263 264 272 257 257 260 261 251 220 211 189 179 170 167 171 176 194 200 217 234 258 166 168 140 140 128 121 145 148 151 149 149 148 146
3 354 344 332 319 311 303 292 287 290 292 275 258 258 270 264 269 264 242 211 196 187 173 174 172 171 188 204 209 242 286 6 342 146 143 143 106 130 141 136 134 124 133 143 147
3 357 350 341 328 309 302 296 286 285 283 284 269 250 262 277 292 194 209 207 190 180 181 179 181 181 195 197 193 152 9 80 317 168 138 132 120 147 162 153 156 147 146 150 152
2 358 355 351 340 328 308 294 289 286 286 277 267 252 232 237 213 184 206 202 185 171 176 180 180 193 207 199 173 160 71 37 112 138 125 158 125 96 220 108 160 158 150 151 155
4 6 5 2 358 345 328 312 299 293 290 280 268 244 207 231 244 211 235 183 181 174 180 183 190 204 204 196 172 237 142 69 145 144 149 153 97 75 110 138 146 151 153 152 157
11 12 18 28 32 28 16 359 335 313 297 284 250 220 215 239 238 233 221 171 175 176 184 188 200 201 214 201 215 151 144 119 148 140 134 124 90 13 125 142 144 153 156 155 159
17 19 31 38 37 31 31 30 21 8 338 290 241 197 236 243 248 253 165 165 171 175 178 180 201 201 198 180 161 145 152 130 150 151 125 133 152 87 144 149 151 158 158 157 161
15 17 18 24 21 20 17 12 7 27 39 17 187 182 247 246 230 140 156 166 164 155 182 182 170 210 237 112 183 183 172 181 153 155 167 200 166 121 160 159 160 161 160 157 162
8 13 5 1 6 6 3 356 355 2 27 25 70 207 131 67 138 148 144 159 164 160 157 188 190 210 196 211 191 197 184 151 138 185 158 200 138 175 160 178 167 169 166 164 166
3 358 358 352 351 359 356 353 360 346 333 41 48 233 143 111 149 146 148 158 162 160 150 183 202 204 211 211 202 188 213 165 151 161 167 195 143 165 190 205 172 173 168 168 171
357 352 347 347 344 348 352 357 0 99 310 286 329 307 106 115 136 155 145 150 171 181 185 190 208 206 193 213 359 298 231 153 139 153 150 131 138 173 182 206 184 179 170 175 174
349 348 339 339 344 342 341 330 351 316 308 260 254 244 219 153 153 160 155 157 179 190 182 175 219 204 201 199 239 223 216 115 125 151 157 175 175 169 172 191 194 186 180 184 180
341 340 337 338 347 214 324 276 321 336 267 102 155 144 161 177 172 174 180 166 190 198 203 208 191 177 206 199 207 216 207 159 153 167 182 176 137 163 175 194 197 191 192 191 186
337 338 339 348 87 328 327 322 321 317 221 91 143 131 148 185 162 174 185 179 188 204 211 235 132 183 207 206 216 174 233 150 148 178 180 203 122 187 172 183 193 190 193 194 189
335 340 346 307 230 356 299 322 327 235 301 42 80 103 176 227 134 181 186 205 197 190 198 186 187 192 200 209 209 75 171 173 178 222 147 183 150 159 166 187 190 204 195 195 193
336 351 43 75 245 281 326 328 296 231 80 84 72 329 193 202 169 152 185 224 253 203 217 360 209 199 193 180 204 191 169 168 172 254 230 171 256 163 182 198 195 191 198 199 198
339 28 72 99 209 304 327 302 235 35 171 33 360 317 288 167 158 174 187 193 194 196 189 179 191 189 211 198 197 208 180 176 199 202 250 136 212 67 194 178 192 189 193 200 196
12 98 144 270 287 307 311 249 49 35 29 7 320 270 247 190 154 182 187 197 212 245 183 198 181 197 196 216 188 210 211 213 206 210 211 130 220 150 183 196 195 199 189 199 194
104 104 29 356 17 333 252 343 26 26 4 343 261 276 165 188 261 176 196 208 192 226 245 205 223 180 202 215 216 193 225 237 274 254 258 162 179 150 186 206 198 182 176 199 202
134 129 41 71 29 308 259 75 80 9 335 302 352 343 294 184 215 212 168 220 218 202 270 182 221 194 200 214 214 236 198 211 241 217 231 163 224 107 181 176 177 175 181 180 199
144 183 32 44 79 259 61 63 25 48 350 325 357 330 338 268 266 169 105 98 223 185 243 242 260 164 187 204 196 195 224 221 245 238 257 229 195 72 137 182 173 177 180 183 196
206 182 72 28 218 10 66 16 334 19 40 326 295 14 354 327 248 177 320 9 341 253 213 221 244 194 199 199 242 203 214 203 228 191 256 309 82 108 141 152 180 164 179 187 187
222 94 41 8 297 123 133 121 7 12 32 5 9 10 3 101 101 26 127 7 353 219 286 195 235 209 169 187 206 229 213 231 216 244 220 237 186 129 140 147 148 158 163 159 171
226 185 145 71 45 312 289 54 21 52 43 7 2 230 201 173 165 217 312 19 8 62 42 229 273 272 259 193 187 203 208 223 240 228 235 210 148 165 161 156 142 158 164 161 168
284 78 10 145 108 105 286 327 339 357 359 14 83 25 351 106 155 152 227 305 143 60 57 317 259 247 77 81 159 201 201 200 225 242 264 233 214 150 172 158 167 163 167 165 165
245 203 143 110 144 241 148 40 44 75 359 41 29 33 45 72 18 79 334 348 356 316 284 8 130 226 116 109 142 133 161 199 224 246 259 268 106 122 135 142 153 156 158 158 164
66 138 250 151 186 270 43 114 71 296 69 35 341 287 99 41 359 25 172 111 105 268 318 148 333 249 138 142 177 145 41 56 146 172 320 225 56 149 135 151 128 132 135 135 138